Time,TemperatureF,DewpointF,PressureIn,WindDirection,WindDirectionDegrees,WindSpeedMPH,WindSpeedGustMPH,Humidity,HourlyPrecipIn,Conditions,Clouds,dailyrainin,SoftwareType,DateUTC
2013-07-30 00:03:00,64.0,63.0,29.92,SE,146,0.0,0.0,95,0.00,,,0.10,,2013-07-30 05:03:00,
2013-07-30 00:12:00,64.0,63.0,29.93,SE,146,0.0,3.0,95,0.00,,,0.10,,2013-07-30 05:12:00,
2013-07-30 00:22:00,64.0,63.0,29.93,SE,146,2.0,4.0,96,0.00,,,0.10,,2013-07-30 05:22:00,
2013-07-30 00:32:00,64.0,63.0,29.93,SE,146,2.0,4.0,96,0.00,,,0.10,,2013-07-30 05:32:00,
2013-07-30 00:45:00,64.0,63.0,29.93,SE,146,0.0,4.0,96,0.00,,,0.10,,2013-07-30 05:45:00,
2013-07-30 00:52:00,64.0,63.0,29.93,SE,146,0.0,2.0,96,0.00,,,0.10,,2013-07-30 05:52:00,
2013-07-30 01:03:00,64.0,63.0,29.93,SE,146,0.0,2.0,96,0.00,,,0.10,,2013-07-30 06:03:00,
2013-07-30 01:12:00,64.0,63.0,29.94,SE,146,0.0,2.0,96,0.00,,,0.10,,2013-07-30 06:12:00,
2013-07-30 01:22:00,64.0,63.0,29.95,SE,146,0.0,2.0,96,0.00,,,0.10,,2013-07-30 06:22:00,
2013-07-30 01:32:00,64.0,63.0,29.95,SE,146,0.0,2.0,96,0.00,,,0.10,,2013-07-30 06:32:00,
2013-07-30 01:43:00,63.0,62.0,29.95,SE,146,0.0,0.0,97,0.00,,,0.10,,2013-07-30 06:43:00,
2013-07-30 01:52:00,64.0,63.0,29.96,SE,146,0.0,1.0,97,0.00,,,0.10,,2013-07-30 06:52:00,
2013-07-30 02:02:00,64.0,63.0,29.96,SE,146,0.0,1.0,97,0.00,,,0.10,,2013-07-30 07:02:00,
2013-07-30 02:13:00,64.0,63.0,29.96,SE,146,0.0,3.0,97,0.00,,,0.10,,2013-07-30 07:13:00,
2013-07-30 02:23:00,64.0,63.0,29.96,SE,146,1.0,4.0,97,0.00,,,0.10,,2013-07-30 07:23:00,
2013-07-30 02:33:00,64.0,63.0,29.96,SE,146,1.0,4.0,97,0.00,,,0.10,,2013-07-30 07:33:00,
2013-07-30 02:43:00,64.0,63.0,29.95,SE,146,1.0,3.0,97,0.00,,,0.10,,2013-07-30 07:43:00,
2013-07-30 03:03:00,64.0,63.0,29.94,SE,146,0.0,3.0,97,0.00,,,0.10,,2013-07-30 08:03:00,
2013-07-30 03:12:00,64.0,63.0,29.95,SE,146,0.0,3.0,97,0.00,,,0.07,,2013-07-30 08:12:00,
2013-07-30 03:33:00,64.0,63.0,29.96,SE,146,0.0,3.0,97,0.00,,,0.07,,2013-07-30 08:33:00,
2013-07-30 03:43:00,63.0,62.0,29.96,SE,146,0.0,4.0,97,0.00,,,0.07,,2013-07-30 08:43:00,
2013-07-30 04:03:00,63.0,62.0,29.96,West,263,2.0,4.0,97,0.00,,,0.07,,2013-07-30 09:03:00,
2013-07-30 04:12:00,62.0,61.0,29.96,West,265,2.0,4.0,97,0.00,,,0.06,,2013-07-30 09:12:00,
2013-07-30 04:33:00,62.0,61.0,29.96,West,263,2.0,5.0,97,0.00,,,0.06,,2013-07-30 09:33:00,
2013-07-30 04:43:00,62.0,61.0,29.97,West,266,2.0,5.0,97,0.00,,,0.06,,2013-07-30 09:43:00,
2013-07-30 05:03:00,61.0,60.0,29.97,WSW,258,2.0,5.0,97,0.00,,,0.06,,2013-07-30 10:03:00,
2013-07-30 05:12:00,61.0,60.0,29.97,West,272,2.0,4.0,98,0.00,,,0.03,,2013-07-30 10:12:00,
2013-07-30 05:22:00,61.0,60.0,29.97,West,272,2.0,4.0,98,0.00,,,0.03,,2013-07-30 10:22:00,
2013-07-30 05:32:00,61.0,60.0,29.98,WNW,286,0.0,5.0,98,0.00,,,0.03,,2013-07-30 10:32:00,
2013-07-30 05:43:00,61.0,60.0,29.97,WNW,286,0.0,3.0,98,0.00,,,0.03,,2013-07-30 10:43:00,
2013-07-30 05:52:00,61.0,60.0,29.97,WNW,286,0.0,3.0,98,0.00,,,0.03,,2013-07-30 10:52:00,
2013-07-30 06:02:00,61.0,60.0,29.97,WNW,286,1.0,3.0,98,0.00,,,0.03,,2013-07-30 11:02:00,
2013-07-30 06:11:00,61.0,60.0,29.97,WNW,286,1.0,3.0,98,0.00,,,0.01,,2013-07-30 11:11:00,
2013-07-30 06:22:00,61.0,60.0,29.97,WNW,286,1.0,3.0,98,0.00,,,0.01,,2013-07-30 11:22:00,
2013-07-30 06:33:00,61.0,60.0,29.97,WNW,286,1.0,3.0,98,0.00,,,0.01,,2013-07-30 11:33:00,
2013-07-30 06:43:00,61.0,60.0,29.98,WNW,290,1.0,4.0,98,0.00,,,0.01,,2013-07-30 11:43:00,
2013-07-30 06:53:00,61.0,60.0,29.98,WNW,290,1.0,4.0,98,0.00,,,0.01,,2013-07-30 11:53:00,
2013-07-30 07:12:00,62.0,61.0,29.98,WNW,290,0.0,1.0,98,0.00,,,0.01,,2013-07-30 12:12:00,
2013-07-30 07:22:00,62.0,61.0,29.98,WNW,290,1.0,3.0,98,0.00,,,0.00,,2013-07-30 12:22:00,
2013-07-30 07:33:00,62.0,61.0,29.98,WNW,290,0.0,2.0,98,0.00,,,0.00,,2013-07-30 12:33:00,
2013-07-30 07:53:00,62.0,61.0,29.98,WNW,290,0.0,3.0,98,0.00,,,0.00,,2013-07-30 12:53:00,
2013-07-30 08:02:00,62.0,61.0,29.98,WNW,290,0.0,2.0,98,0.00,,,0.00,,2013-07-30 13:02:00,
2013-07-30 08:12:00,62.0,61.0,29.98,WNW,290,0.0,2.0,98,0.00,,,0.00,,2013-07-30 13:12:00,
2013-07-30 08:22:00,62.0,61.0,29.98,WNW,290,0.0,2.0,98,0.00,,,0.00,,2013-07-30 13:22:00,
2013-07-30 08:32:00,62.0,61.0,29.98,WNW,290,0.0,3.0,98,0.00,,,0.00,,2013-07-30 13:32:00,
2013-07-30 08:52:00,62.0,61.0,29.98,WNW,290,1.0,2.0,98,0.00,,,0.00,,2013-07-30 13:52:00,
2013-07-30 09:02:00,62.0,61.0,29.98,WNW,289,2.0,4.0,98,0.00,,,0.00,,2013-07-30 14:02:00,
2013-07-30 09:12:00,62.0,61.0,29.99,WNW,283,2.0,5.0,98,0.00,,,0.00,,2013-07-30 14:12:00,
2013-07-30 09:33:00,62.0,62.0,29.99,WNW,284,1.0,4.0,99,0.00,,,0.00,,2013-07-30 14:33:00,
2013-07-30 09:43:00,63.0,62.0,30.00,WNW,300,1.0,3.0,98,0.00,,,0.00,,2013-07-30 14:43:00,
2013-07-30 09:53:00,63.0,62.0,30.00,WNW,300,1.0,3.0,98,0.00,,,0.00,,2013-07-30 14:53:00,
2013-07-30 10:02:00,63.0,62.0,30.00,WNW,291,1.0,5.0,98,0.00,,,0.00,,2013-07-30 15:02:00,
2013-07-30 10:12:00,63.0,62.0,30.00,WNW,297,0.0,5.0,98,0.00,,,0.00,,2013-07-30 15:12:00,
2013-07-30 10:23:00,63.0,62.0,30.00,WNW,297,0.0,5.0,98,0.00,,,0.00,,2013-07-30 15:23:00,
2013-07-30 10:33:00,63.0,63.0,30.01,NW,315,0.0,3.0,99,0.00,,,0.00,,2013-07-30 15:33:00,
2013-07-30 10:43:00,64.0,63.0,30.01,NW,315,0.0,2.0,98,0.00,,,0.00,,2013-07-30 15:43:00,
2013-07-30 10:52:00,64.0,63.0,30.01,NW,315,0.0,2.0,98,0.00,,,0.00,,2013-07-30 15:52:00,
2013-07-30 11:02:00,64.0,63.0,30.00,NW,314,0.0,2.0,98,0.00,,,0.00,,2013-07-30 16:02:00,
2013-07-30 11:12:00,65.0,64.0,30.00,West,277,0.0,3.0,98,0.00,,,0.00,,2013-07-30 16:12:00,
2013-07-30 11:22:00,65.0,64.0,30.00,West,277,0.0,3.0,98,0.00,,,0.00,,2013-07-30 16:22:00,
2013-07-30 11:33:00,66.0,65.0,30.00,South,177,0.0,4.0,96,0.00,,,0.00,,2013-07-30 16:33:00,
2013-07-30 11:43:00,66.0,64.0,30.01,SSE,160,0.0,3.0,93,0.00,,,0.00,,2013-07-30 16:43:00,
2013-07-30 11:52:00,66.0,64.0,30.01,SSE,160,0.0,3.0,93,0.00,,,0.00,,2013-07-30 16:52:00,
2013-07-30 12:02:00,67.0,64.0,30.01,SSE,160,0.0,3.0,91,0.00,,,0.00,,2013-07-30 17:02:00,
2013-07-30 12:12:00,68.0,64.0,30.00,SSE,160,0.0,2.0,88,0.00,,,0.00,,2013-07-30 17:12:00,
2013-07-30 12:22:00,68.0,64.0,30.00,SSE,160,0.0,2.0,88,0.00,,,0.00,,2013-07-30 17:22:00,
2013-07-30 12:32:00,69.0,65.0,30.00,SSE,157,1.0,5.0,86,0.00,,,0.00,,2013-07-30 17:32:00,
2013-07-30 12:43:00,70.0,65.0,30.01,ESE,103,1.0,5.0,85,0.00,,,0.00,,2013-07-30 17:43:00,
2013-07-30 12:53:00,70.0,65.0,30.01,ESE,103,1.0,5.0,85,0.00,,,0.00,,2013-07-30 17:53:00,
2013-07-30 13:03:00,70.0,65.0,30.01,South,180,0.0,3.0,84,0.00,,,0.00,,2013-07-30 18:03:00,
2013-07-30 13:12:00,71.0,66.0,30.00,SSE,157,1.0,5.0,84,0.00,,,0.00,,2013-07-30 18:12:00,
2013-07-30 13:23:00,71.0,66.0,30.00,SSE,157,1.0,5.0,84,0.00,,,0.00,,2013-07-30 18:23:00,
2013-07-30 13:32:00,72.0,66.0,30.00,SSE,165,0.0,4.0,81,0.00,,,0.00,,2013-07-30 18:32:00,
2013-07-30 13:42:00,73.0,66.0,30.00,SSE,148,0.0,5.0,79,0.00,,,0.00,,2013-07-30 18:42:00,
2013-07-30 13:52:00,73.0,66.0,30.00,SSE,148,0.0,5.0,79,0.00,,,0.00,,2013-07-30 18:52:00,
2013-07-30 14:02:00,73.0,66.0,29.99,SSE,157,1.0,5.0,79,0.00,,,0.00,,2013-07-30 19:02:00,
2013-07-30 14:12:00,75.0,67.0,29.98,SSE,154,2.0,7.0,75,0.00,,,0.00,,2013-07-30 19:12:00,
2013-07-30 14:22:00,75.0,67.0,29.98,SSE,154,2.0,7.0,75,0.00,,,0.00,,2013-07-30 19:22:00,
2013-07-30 14:33:00,77.0,68.0,29.98,SE,135,2.0,9.0,73,0.00,,,0.00,,2013-07-30 19:33:00,
2013-07-30 14:44:00,77.0,66.0,29.98,SE,138,3.0,7.0,70,0.00,,,0.00,,2013-07-30 19:44:00,
2013-07-30 14:52:00,77.0,66.0,29.98,SE,138,3.0,7.0,70,0.00,,,0.00,,2013-07-30 19:52:00,
2013-07-30 15:02:00,79.0,68.0,29.98,SSE,147,1.0,8.0,68,0.00,,,0.00,,2013-07-30 20:02:00,
2013-07-30 15:12:00,80.0,68.0,29.97,SE,137,3.0,6.0,66,0.00,,,0.00,,2013-07-30 20:12:00,
2013-07-30 15:22:00,80.0,68.0,29.97,SE,137,3.0,6.0,66,0.00,,,0.00,,2013-07-30 20:22:00,
2013-07-30 15:32:00,80.0,68.0,29.97,SE,135,1.0,7.0,66,0.00,,,0.00,,2013-07-30 20:32:00,
2013-07-30 15:43:00,80.0,67.0,29.96,SE,133,2.0,8.0,64,0.00,,,0.00,,2013-07-30 20:43:00,
2013-07-30 15:52:00,80.0,67.0,29.96,SE,133,2.0,8.0,64,0.00,,,0.00,,2013-07-30 20:52:00,
2013-07-30 16:02:00,82.0,68.0,29.96,ESE,112,0.0,5.0,62,0.00,,,0.00,,2013-07-30 21:02:00,
2013-07-30 16:12:00,83.0,67.0,29.96,SSE,155,2.0,7.0,59,0.00,,,0.00,,2013-07-30 21:12:00,
2013-07-30 16:22:00,83.0,67.0,29.96,SSE,155,2.0,7.0,59,0.00,,,0.00,,2013-07-30 21:22:00,
2013-07-30 16:32:00,82.0,64.0,29.95,SSE,167,5.0,9.0,55,0.00,,,0.00,,2013-07-30 21:32:00,
2013-07-30 16:42:00,82.0,67.0,29.95,SE,132,3.0,11.0,60,0.00,,,0.00,,2013-07-30 21:42:00,
2013-07-30 16:52:00,82.0,67.0,29.95,SE,132,3.0,11.0,60,0.00,,,0.00,,2013-07-30 21:52:00,
2013-07-30 17:02:00,82.0,67.0,29.95,SE,132,3.0,11.0,60,0.00,,,0.00,,2013-07-30 22:02:00,
2013-07-30 17:12:00,82.0,67.0,29.93,SE,139,3.0,9.0,60,0.00,,,0.00,,2013-07-30 22:12:00,
2013-07-30 17:22:00,82.0,67.0,29.93,SE,139,3.0,9.0,60,0.00,,,0.00,,2013-07-30 22:22:00,
2013-07-30 17:32:00,82.0,67.0,29.93,SE,146,2.0,9.0,61,0.00,,,0.00,,2013-07-30 22:32:00,
2013-07-30 17:43:00,81.0,67.0,29.91,SSE,150,6.0,11.0,63,0.00,,,0.00,,2013-07-30 22:43:00,
2013-07-30 17:52:00,81.0,67.0,29.91,SSE,150,6.0,11.0,63,0.00,,,0.00,,2013-07-30 22:52:00,
2013-07-30 18:02:00,81.0,67.0,29.91,ESE,122,6.0,11.0,63,0.00,,,0.00,,2013-07-30 23:02:00,
2013-07-30 18:12:00,81.0,66.0,29.91,SSE,156,5.0,11.0,60,0.00,,,0.00,,2013-07-30 23:12:00,
2013-07-30 18:22:00,81.0,66.0,29.91,SSE,156,5.0,11.0,60,0.00,,,0.00,,2013-07-30 23:22:00,
2013-07-30 18:32:00,82.0,64.0,29.91,SE,146,5.0,10.0,55,0.00,,,0.00,,2013-07-30 23:32:00,
2013-07-30 18:42:00,82.0,65.0,29.91,ESE,112,4.0,9.0,57,0.00,,,0.00,,2013-07-30 23:42:00,
2013-07-30 18:53:00,82.0,65.0,29.91,ESE,112,4.0,9.0,57,0.00,,,0.00,,2013-07-30 23:53:00,
2013-07-30 19:02:00,82.0,67.0,29.91,SE,133,4.0,9.0,61,0.00,,,0.00,,2013-07-31 00:02:00,
2013-07-30 19:12:00,82.0,66.0,29.91,SSE,155,3.0,10.0,59,0.00,,,0.00,,2013-07-31 00:12:00,
2013-07-30 19:22:00,82.0,66.0,29.91,SSE,155,3.0,10.0,59,0.00,,,0.00,,2013-07-31 00:22:00,
2013-07-30 19:32:00,82.0,65.0,29.91,SE,138,4.0,8.0,57,0.00,,,0.00,,2013-07-31 00:32:00,
2013-07-30 19:43:00,82.0,68.0,29.91,SSE,149,3.0,8.0,62,0.00,,,0.00,,2013-07-31 00:43:00,
2013-07-30 19:53:00,82.0,68.0,29.91,SSE,149,3.0,8.0,62,0.00,,,0.00,,2013-07-31 00:53:00,
2013-07-30 20:02:00,81.0,68.0,29.91,SE,138,3.0,8.0,64,0.00,,,0.00,,2013-07-31 01:02:00,
2013-07-30 20:12:00,81.0,68.0,29.91,SE,138,3.0,8.0,64,0.00,,,0.00,,2013-07-31 01:12:00,
2013-07-30 20:22:00,80.0,68.0,29.91,SE,135,6.0,13.0,66,0.00,,,0.00,,2013-07-31 01:22:00,
2013-07-30 20:32:00,79.0,68.0,29.91,SE,128,5.0,8.0,68,0.00,,,0.00,,2013-07-31 01:32:00,
2013-07-30 20:42:00,79.0,68.0,29.91,SE,128,5.0,8.0,68,0.00,,,0.00,,2013-07-31 01:42:00,
2013-07-30 20:52:00,78.0,67.0,29.91,SE,138,6.0,13.0,70,0.00,,,0.00,,2013-07-31 01:52:00,
2013-07-30 21:02:00,77.0,68.0,29.93,SE,145,4.0,10.0,73,0.00,,,0.00,,2013-07-31 02:02:00,
2013-07-30 21:12:00,77.0,68.0,29.93,SE,145,4.0,10.0,73,0.00,,,0.00,,2013-07-31 02:12:00,
2013-07-30 21:22:00,75.0,67.0,29.93,SSE,148,2.0,6.0,75,0.00,,,0.00,,2013-07-31 02:22:00,
2013-07-30 21:32:00,75.0,67.0,29.93,SSE,148,2.0,6.0,75,0.00,,,0.00,,2013-07-31 02:32:00,
2013-07-30 21:42:00,75.0,67.0,29.94,ESE,116,0.0,6.0,77,0.00,,,0.00,,2013-07-31 02:42:00,
2013-07-30 21:52:00,75.0,67.0,29.94,ESE,116,0.0,6.0,77,0.00,,,0.00,,2013-07-31 02:52:00,
2013-07-30 22:02:00,73.0,67.0,29.96,SE,143,1.0,7.0,81,0.00,,,0.00,,2013-07-31 03:02:00,
2013-07-30 22:12:00,73.0,67.0,29.94,SE,146,8.0,18.0,81,0.00,,,0.00,,2013-07-31 03:12:00,
2013-07-30 22:22:00,73.0,67.0,29.94,SE,146,8.0,18.0,81,0.00,,,0.00,,2013-07-31 03:22:00,
2013-07-30 22:32:00,71.0,67.0,29.94,SE,135,5.0,14.0,86,0.01,,,0.01,,2013-07-31 03:32:00,
2013-07-30 22:42:00,71.0,67.0,29.97,SE,132,3.0,11.0,87,0.01,,,0.01,,2013-07-31 03:42:00,
2013-07-30 22:52:00,71.0,67.0,29.97,SE,132,3.0,11.0,87,0.01,,,0.01,,2013-07-31 03:52:00,
2013-07-30 23:02:00,70.0,67.0,30.05,East,79,7.0,15.0,89,0.01,,,0.01,,2013-07-31 04:02:00,
2013-07-30 23:12:00,70.0,66.0,30.07,NNE,30,6.0,14.0,88,0.01,,,0.01,,2013-07-31 04:12:00,
2013-07-30 23:22:00,70.0,66.0,30.07,NNE,30,6.0,14.0,88,0.01,,,0.01,,2013-07-31 04:22:00,
2013-07-30 23:32:00,70.0,66.0,30.07,NNE,30,6.0,14.0,88,0.01,,,0.01,,2013-07-31 04:32:00,
2013-07-30 23:42:00,70.0,66.0,30.07,NNE,30,6.0,14.0,88,0.01,,,0.01,,2013-07-31 04:42:00,
2013-07-30 23:52:00,69.0,66.0,30.03,ESE,121,4.0,15.0,91,0.01,,,0.02,,2013-07-31 04:52:00,